Weather History for St. Johns, AZ

Change the Weather History Date:

Tuesday, October 11, 2011

  Actual Average (KSOW) Record (KSOW)
Temperature  
Mean Temperature 54 °F -  
Max Temperature 70 °F 67 °F 82 °F (1991)
Min Temperature 37 °F 44 °F 23 °F (2013)
Degree Days  
Heating Degree Days 12    
Growing Degree Days 4 (Base 50)    
Moisture  
Dew Point 31 °F    
Average Humidity 46    
Maximum Humidity 79    
Minimum Humidity 21    
Precipitation  
Precipitation 0.00 in - - ()
Sea Level Pressure  
Sea Level Pressure 29.94 in    
Wind  
Wind Speed 5 mph (SW)    
Max Wind Speed 17 mph    
Max Gust Speed 21 mph    
Visibility 10 miles    
Events      
Averages and records for this station are not official NWS values.
T = Trace of Precipitation, MM = Missing Value Source: NWS Daily Summary

Daily Weather History Graph

Daily Weather History Graph

Search for Another Location

Airport:

Trip Planner

Search our weather history database for the weather conditions in past years. The results will help you decide how hot, cold, wet, or windy it might be!

Date:

Astronomy

Oct. 11, 2011 Rise Set
Actual Time 6:19 AM MST 5:48 PM MST
Civil Twilight 5:54 AM MST 6:13 PM MST
Nautical Twilight 5:25 AM MST 6:42 PM MST
Astronomical Twilight 4:56 AM MST 7:11 PM MST
Moon 5:24 PM MST (10/11) 5:59 AM MST (10/11)
Length of Visible Light 12h 19m
Length of Day
11h 28m
Full, 100% of the Moon is Illuminated
Oct 11
Full
Oct 11
Full
Oct 19
Last Quarter
Oct 26
New
Nov 2
First Quarter

Hourly Weather History & Observations

Time (MST) Temp. Windchill Dew Point Humidity Pressure Visibility Wind Dir Wind Speed Gust Speed Precip Events Conditions
12:54 AM 43.0 °F - 33.1 °F 68% 29.88 in 10.0 mi Calm Calm - N/A   Clear
1:54 AM 44.1 °F 42.5 °F 32.0 °F 63% 29.88 in 10.0 mi SSE 3.5 mph - N/A   Clear
2:54 AM 42.8 °F 41.1 °F 32.0 °F 66% 30.05 in 10.0 mi SE 3.5 mph - N/A   Clear
3:54 AM 37.9 °F - 32.0 °F 79% 29.90 in 10.0 mi Calm Calm - N/A   Clear
4:54 AM 37.9 °F 35.5 °F 32.0 °F 79% 29.90 in 10.0 mi SSE 3.5 mph - N/A   Clear
5:54 AM 39.2 °F 34.2 °F 28.4 °F 65% 30.08 in 10.0 mi South 6.9 mph - N/A   Clear
6:54 AM 41.0 °F 36.4 °F 30.0 °F 65% 29.96 in 10.0 mi South 6.9 mph - N/A   Clear
7:54 AM 51.1 °F - 28.9 °F 43% 29.94 in 10.0 mi South 6.9 mph - N/A   Clear
8:54 AM 57.9 °F - 30.0 °F 35% 29.92 in 10.0 mi SSW 3.5 mph - N/A   Clear
9:54 AM 61.0 °F - 28.9 °F 30% 29.94 in 10.0 mi NW 8.1 mph - N/A   Clear
10:54 AM 63.0 °F - 30.0 °F 29% 29.93 in 10.0 mi West 11.5 mph - N/A   Clear
11:54 AM 66.0 °F - 28.0 °F 24% 29.91 in 10.0 mi WNW 8.1 mph - N/A   Clear
12:54 PM 68.0 °F - 28.4 °F 23% 30.07 in 10.0 mi West 12.7 mph 17.3 mph N/A   Clear
1:54 PM 70.0 °F - 28.0 °F 21% 29.87 in 10.0 mi WNW 15.0 mph 20.7 mph N/A   Clear
2:54 PM 70.0 °F - 28.9 °F 22% 29.88 in 10.0 mi WNW 15.0 mph 20.7 mph N/A   Clear
3:54 PM 70.0 °F - 33.1 °F 26% 29.89 in 10.0 mi West 12.7 mph - N/A   Clear
4:54 PM 68.0 °F - 30.9 °F 25% 29.89 in 10.0 mi WNW 17.3 mph - N/A   Clear
5:54 PM 61.0 °F - 33.1 °F 35% 29.92 in 10.0 mi West 8.1 mph - N/A   Clear
6:54 PM 57.0 °F - 33.1 °F 40% 29.95 in 10.0 mi West 4.6 mph - N/A   Clear
7:54 PM 55.9 °F - 33.1 °F 42% 29.93 in 10.0 mi SW 4.6 mph - N/A   Clear
8:54 PM 52.0 °F - 34.0 °F 50% 29.94 in 10.0 mi SE 4.6 mph - N/A   Clear
9:54 PM 50.0 °F - 34.0 °F 54% 29.94 in 10.0 mi South 5.8 mph - N/A   Clear
10:54 PM 48.9 °F - 35.1 °F 59% 29.95 in 10.0 mi SSE 5.8 mph - N/A   Clear
11:54 PM 46.0 °F 43.9 °F 35.1 °F 66% 29.95 in 10.0 mi SSE 4.6 mph - N/A   Clear